RYR2FU EGBB-LIRF

Flight info

Callsign RYR2FU
Flight time 2h 12m
Altitude 37000
Route COWLY L612 MID UL612 OGULO DCT OKASI DCT OKEKO DCT MOU DCT MADIV DCT MOKIP DCT TUFTA DCT KOGAS DCT MEDAM DCT NITAM DCT MOGBO DCT ELB/N0437F380 DCT ELKAP
Aircraft B738/M-SDE3FGILRWY/SB1

Departure

Time 2026-05-07 15:58
Airport Birmingham Airport (EGBB)

Arrival

Time 2026-05-07 18:10
Airport Rome–Fiumicino Leonardo da Vinci International Airport (LIRF)
Time Latitude Longitude Altitude Speed Heading
2026-05-07 15:39 52.45206 -1.73698 321 ft 0 kts 326°
2026-05-07 15:46 52.45206 -1.73697 321 ft 1 kts 326°
2026-05-07 15:47 52.45187 -1.73676 321 ft 4 kts 326°
2026-05-07 15:47 52.45169 -1.73655 320 ft 4 kts 314°
2026-05-07 15:47 52.45156 -1.73620 320 ft 4 kts 277°
2026-05-07 15:47 52.45159 -1.73580 320 ft 4 kts 240°
2026-05-07 15:48 52.45158 -1.73582 320 ft 4 kts 236°
2026-05-07 15:48 52.45146 -1.73609 322 ft 0 kts 236°
2026-05-07 15:50 52.45144 -1.73616 322 ft 3 kts 236°
2026-05-07 15:50 52.45116 -1.73682 322 ft 10 kts 236°
2026-05-07 15:51 52.45106 -1.73767 322 ft 14 kts 292°
2026-05-07 15:51 52.45196 -1.73881 322 ft 19 kts 326°
2026-05-07 15:51 52.45303 -1.74013 322 ft 19 kts 302°
2026-05-07 15:51 52.45362 -1.74205 321 ft 19 kts 296°
2026-05-07 15:52 52.45419 -1.74390 321 ft 18 kts 296°
2026-05-07 15:52 52.45476 -1.74567 322 ft 17 kts 309°
2026-05-07 15:52 52.45572 -1.74682 319 ft 17 kts 326°
2026-05-07 15:52 52.45680 -1.74802 313 ft 20 kts 326°
2026-05-07 15:53 52.45805 -1.74941 309 ft 24 kts 326°
2026-05-07 15:53 52.45952 -1.75104 307 ft 27 kts 326°
2026-05-07 15:53 52.46108 -1.75277 304 ft 27 kts 326°
2026-05-07 15:53 52.46255 -1.75440 301 ft 25 kts 326°
2026-05-07 15:54 52.46394 -1.75594 300 ft 23 kts 326°
2026-05-07 15:54 52.46525 -1.75741 304 ft 19 kts 325°
2026-05-07 15:54 52.46608 -1.75833 308 ft 11 kts 326°
2026-05-07 15:54 52.46633 -1.75924 305 ft 10 kts 250°
2026-05-07 15:55 52.46623 -1.75948 307 ft 0 kts 231°
2026-05-07 15:56 52.46622 -1.75949 307 ft 1 kts 231°
2026-05-07 15:56 52.46608 -1.75981 307 ft 6 kts 234°
2026-05-07 15:56 52.46575 -1.76059 306 ft 9 kts 235°
2026-05-07 15:56 52.46533 -1.76076 308 ft 2 kts 148°
2026-05-07 15:57 52.46456 -1.75991 308 ft 43 kts 145°
2026-05-07 15:58 52.46001 -1.75484 312 ft 112 kts 146°
2026-05-07 15:58 52.45188 -1.74582 348 ft 167 kts 146°
2026-05-07 15:58 52.44207 -1.73479 996 ft 173 kts 146°
2026-05-07 15:58 52.43222 -1.72375 1855 ft 177 kts 146°
2026-05-07 15:59 52.42116 -1.71137 2254 ft 203 kts 146°
2026-05-07 15:59 52.40875 -1.69970 2903 ft 210 kts 162°
2026-05-07 15:59 52.39446 -1.69403 3663 ft 212 kts 167°
2026-05-07 15:59 52.38003 -1.68819 4467 ft 217 kts 162°
2026-05-07 16:00 52.36547 -1.67771 4845 ft 243 kts 154°
2026-05-07 16:00 52.34992 -1.66399 5360 ft 261 kts 152°
2026-05-07 16:00 52.33390 -1.64940 6147 ft 266 kts 152°
2026-05-07 16:00 52.31764 -1.63457 7007 ft 269 kts 152°
2026-05-07 16:01 52.30121 -1.61966 7853 ft 271 kts 153°
2026-05-07 16:01 52.28461 -1.60467 8760 ft 273 kts 153°
2026-05-07 16:01 52.26791 -1.58966 9613 ft 276 kts 153°
2026-05-07 16:01 52.25096 -1.57448 10403 ft 281 kts 153°
2026-05-07 16:02 52.23312 -1.55859 10643 ft 305 kts 153°
2026-05-07 16:02 52.21384 -1.54145 10930 ft 324 kts 153°
2026-05-07 16:02 52.19378 -1.52364 11559 ft 331 kts 153°
2026-05-07 16:02 52.17348 -1.50562 12328 ft 334 kts 153°
2026-05-07 16:03 52.15327 -1.48769 13127 ft 336 kts 153°
2026-05-07 16:03 52.13266 -1.46944 13879 ft 339 kts 153°
2026-05-07 16:03 52.11150 -1.45073 14517 ft 344 kts 153°
2026-05-07 16:03 52.09057 -1.43226 15122 ft 349 kts 153°
2026-05-07 16:04 52.06908 -1.41332 15755 ft 354 kts 153°
2026-05-07 16:04 52.04734 -1.39418 16390 ft 358 kts 153°
2026-05-07 16:04 52.02528 -1.37478 16971 ft 363 kts 153°
2026-05-07 16:04 52.00293 -1.35516 17580 ft 368 kts 153°
2026-05-07 16:05 51.98030 -1.33531 18205 ft 372 kts 153°
2026-05-07 16:05 51.95738 -1.31523 18743 ft 376 kts 154°
2026-05-07 16:05 51.93423 -1.29497 19317 ft 379 kts 154°
2026-05-07 16:05 51.91092 -1.27459 19879 ft 382 kts 154°
2026-05-07 16:06 51.88742 -1.25406 20420 ft 386 kts 154°
2026-05-07 16:06 51.86366 -1.23334 20952 ft 389 kts 154°
2026-05-07 16:06 51.83974 -1.21250 21482 ft 393 kts 154°
2026-05-07 16:06 51.81559 -1.19150 21997 ft 396 kts 154°
2026-05-07 16:07 51.79123 -1.17033 22501 ft 399 kts 154°
2026-05-07 16:07 51.76661 -1.14896 22981 ft 403 kts 154°
2026-05-07 16:07 51.74181 -1.12747 23474 ft 406 kts 154°
2026-05-07 16:07 51.71680 -1.10581 23902 ft 409 kts 154°
2026-05-07 16:08 51.69164 -1.08406 24328 ft 412 kts 154°
2026-05-07 16:08 51.66632 -1.06218 24755 ft 414 kts 154°
2026-05-07 16:08 51.64087 -1.04023 25167 ft 416 kts 154°
2026-05-07 16:08 51.61526 -1.01818 25558 ft 419 kts 154°
2026-05-07 16:09 51.58950 -0.99601 25958 ft 421 kts 154°
2026-05-07 16:09 51.56359 -0.97375 26339 ft 423 kts 154°
2026-05-07 16:09 51.53749 -0.95135 26702 ft 426 kts 154°
2026-05-07 16:09 51.51126 -0.92886 27053 ft 430 kts 154°
2026-05-07 16:10 51.48479 -0.90619 27422 ft 432 kts 154°
2026-05-07 16:10 51.45825 -0.88352 27794 ft 434 kts 155°
2026-05-07 16:10 51.43178 -0.86030 28133 ft 437 kts 153°
2026-05-07 16:10 51.40542 -0.83578 28491 ft 439 kts 152°
2026-05-07 16:11 51.37907 -0.81066 28829 ft 442 kts 152°
2026-05-07 16:11 51.35262 -0.78531 29163 ft 444 kts 152°
2026-05-07 16:11 51.32606 -0.75995 29473 ft 446 kts 152°
2026-05-07 16:11 51.29931 -0.73456 29772 ft 448 kts 152°
2026-05-07 16:12 51.27239 -0.70916 30065 ft 451 kts 152°
2026-05-07 16:12 51.24533 -0.68375 30321 ft 452 kts 152°
2026-05-07 16:12 51.21810 -0.65826 30589 ft 454 kts 152°
2026-05-07 16:12 51.19091 -0.63285 30934 ft 453 kts 153°
2026-05-07 16:13 51.16377 -0.60754 31331 ft 451 kts 153°
2026-05-07 16:13 51.13676 -0.58238 31706 ft 449 kts 153°
2026-05-07 16:13 51.10983 -0.55733 32030 ft 449 kts 153°
2026-05-07 16:13 51.08284 -0.53227 32347 ft 449 kts 153°
2026-05-07 16:14 51.05592 -0.50731 32688 ft 448 kts 153°
2026-05-07 16:14 51.02907 -0.48243 33027 ft 447 kts 153°
2026-05-07 16:14 51.00222 -0.45760 33364 ft 446 kts 153°
2026-05-07 16:14 50.97544 -0.43286 33674 ft 445 kts 153°
2026-05-07 16:15 50.94868 -0.40817 34006 ft 445 kts 153°
2026-05-07 16:15 50.92199 -0.38358 34277 ft 444 kts 153°
2026-05-07 16:15 50.89530 -0.35902 34491 ft 444 kts 153°
2026-05-07 16:15 50.86855 -0.33445 34686 ft 444 kts 153°
2026-05-07 16:16 50.84184 -0.30994 34941 ft 443 kts 153°
2026-05-07 16:16 50.81520 -0.28553 35199 ft 442 kts 153°
2026-05-07 16:16 50.78852 -0.26111 35398 ft 443 kts 153°
2026-05-07 16:16 50.76183 -0.23672 35582 ft 444 kts 153°
2026-05-07 16:17 50.73512 -0.21235 35798 ft 443 kts 153°
2026-05-07 16:17 50.70844 -0.18802 36018 ft 443 kts 153°
2026-05-07 16:17 50.68177 -0.16374 36213 ft 443 kts 153°
2026-05-07 16:17 50.65506 -0.13946 36397 ft 443 kts 153°
2026-05-07 16:18 50.62835 -0.11521 36598 ft 443 kts 153°
2026-05-07 16:18 50.60168 -0.09102 36835 ft 442 kts 153°
2026-05-07 16:18 50.57511 -0.06696 37014 ft 442 kts 153°
2026-05-07 16:19 50.52151 -0.01854 37057 ft 445 kts 153°
2026-05-07 16:19 50.46792 0.02978 37048 ft 443 kts 153°
2026-05-07 16:20 50.41500 0.07737 37045 ft 440 kts 153°
2026-05-07 16:20 50.36196 0.12493 37055 ft 438 kts 153°
2026-05-07 16:21 50.30909 0.17222 37055 ft 437 kts 153°
2026-05-07 16:21 50.25629 0.21934 37056 ft 437 kts 153°
2026-05-07 16:22 50.20354 0.26695 37050 ft 439 kts 149°
2026-05-07 16:22 50.15540 0.32620 37050 ft 443 kts 142°
2026-05-07 16:23 50.10828 0.38829 37058 ft 444 kts 142°
2026-05-07 16:23 50.06088 0.45010 37053 ft 445 kts 143°
2026-05-07 16:24 50.01309 0.51159 37052 ft 446 kts 143°
2026-05-07 16:24 49.96504 0.57296 37035 ft 448 kts 143°
2026-05-07 16:25 49.91682 0.63434 37048 ft 448 kts 143°
2026-05-07 16:25 49.86852 0.69568 37049 ft 449 kts 143°
2026-05-07 16:26 49.82013 0.75697 37037 ft 449 kts 143°
2026-05-07 16:26 49.77175 0.81810 37034 ft 449 kts 143°
2026-05-07 16:27 49.72336 0.87908 37034 ft 448 kts 143°
2026-05-07 16:27 49.67502 0.93983 37030 ft 448 kts 143°
2026-05-07 16:28 49.62675 1.00034 37036 ft 447 kts 143°
2026-05-07 16:28 49.57848 1.06067 37041 ft 446 kts 143°
2026-05-07 16:29 49.53031 1.12074 37047 ft 446 kts 143°
2026-05-07 16:29 49.48207 1.18073 37039 ft 446 kts 144°
2026-05-07 16:30 49.43384 1.24055 37042 ft 445 kts 144°
2026-05-07 16:30 49.38564 1.30018 37047 ft 445 kts 144°
2026-05-07 16:31 49.33738 1.35972 37041 ft 445 kts 144°
2026-05-07 16:31 49.28910 1.41914 37032 ft 445 kts 144°
2026-05-07 16:32 49.24083 1.47840 37045 ft 445 kts 144°
2026-05-07 16:32 49.19243 1.53766 37044 ft 446 kts 144°
2026-05-07 16:33 49.14400 1.59679 37038 ft 446 kts 144°
2026-05-07 16:33 49.09577 1.65554 37037 ft 447 kts 144°
2026-05-07 16:34 49.04712 1.71465 37025 ft 448 kts 144°
2026-05-07 16:34 48.99836 1.77374 37018 ft 448 kts 144°
2026-05-07 16:35 48.94958 1.83271 37032 ft 448 kts 144°
2026-05-07 16:35 48.90066 1.89167 37028 ft 449 kts 144°
2026-05-07 16:36 48.85165 1.95061 37019 ft 450 kts 144°
2026-05-07 16:36 48.80253 2.00953 37021 ft 450 kts 144°
2026-05-07 16:37 48.75341 2.06830 37022 ft 450 kts 144°
2026-05-07 16:37 48.70428 2.12693 37016 ft 449 kts 144°
2026-05-07 16:38 48.66347 2.17552 37021 ft 449 kts 144°
2026-05-07 16:38 48.61435 2.23386 37010 ft 449 kts 144°
2026-05-07 16:39 48.56528 2.29199 37023 ft 448 kts 145°
2026-05-07 16:39 48.51622 2.34997 37020 ft 448 kts 145°
2026-05-07 16:40 48.46713 2.40783 37034 ft 448 kts 145°
2026-05-07 16:40 48.41805 2.46555 37033 ft 448 kts 145°
2026-05-07 16:41 48.36887 2.52325 37028 ft 448 kts 145°
2026-05-07 16:41 48.31970 2.58080 37018 ft 448 kts 145°
2026-05-07 16:42 48.26919 2.63530 37016 ft 444 kts 155°
2026-05-07 16:42 48.21314 2.67306 37018 ft 442 kts 159°
2026-05-07 16:43 48.15851 2.71617 37033 ft 445 kts 154°
2026-05-07 16:43 48.10437 2.76102 37022 ft 445 kts 153°
2026-05-07 16:44 48.05567 2.81898 37024 ft 453 kts 136°
2026-05-07 16:44 48.01285 2.88804 37019 ft 454 kts 135°
2026-05-07 16:45 47.97004 2.95751 37009 ft 454 kts 136°
2026-05-07 16:45 47.92694 3.02650 37012 ft 455 kts 136°
2026-05-07 16:46 47.88389 3.09475 37014 ft 455 kts 136°
2026-05-07 16:46 47.84042 3.16332 37009 ft 456 kts 136°
2026-05-07 16:47 47.79657 3.23233 37005 ft 456 kts 136°
2026-05-07 16:47 47.75331 3.30024 36990 ft 456 kts 136°
2026-05-07 16:48 47.70969 3.36855 37006 ft 455 kts 137°
2026-05-07 16:48 47.66602 3.43676 37005 ft 456 kts 137°
2026-05-07 16:49 47.62236 3.50477 37007 ft 456 kts 137°
2026-05-07 16:49 47.57858 3.57279 37004 ft 456 kts 137°
2026-05-07 16:50 47.53484 3.64059 36993 ft 456 kts 137°
2026-05-07 16:50 47.49098 3.70840 37001 ft 456 kts 137°
2026-05-07 16:51 47.44716 3.77596 36998 ft 455 kts 137°
2026-05-07 16:51 47.40331 3.84339 37004 ft 455 kts 137°
2026-05-07 16:52 47.35940 3.91075 37021 ft 456 kts 137°
2026-05-07 16:52 47.31532 3.97818 36979 ft 457 kts 137°
2026-05-07 16:53 47.27115 4.04559 36991 ft 457 kts 137°
2026-05-07 16:53 47.22701 4.11279 37002 ft 457 kts 137°
2026-05-07 16:54 47.18285 4.17984 36992 ft 456 kts 137°
2026-05-07 16:54 47.13867 4.24674 36999 ft 456 kts 138°
2026-05-07 16:55 47.09447 4.31351 36987 ft 456 kts 138°
2026-05-07 16:55 47.05024 4.38016 36998 ft 456 kts 138°
2026-05-07 16:56 47.00598 4.44667 36998 ft 456 kts 138°
2026-05-07 16:56 46.93947 4.54633 36991 ft 456 kts 138°
2026-05-07 16:57 46.89509 4.61260 37003 ft 456 kts 138°
2026-05-07 16:57 46.85064 4.67881 36993 ft 457 kts 138°
2026-05-07 16:58 46.80609 4.74503 36999 ft 457 kts 138°
2026-05-07 16:58 46.76151 4.81110 37001 ft 457 kts 139°
2026-05-07 16:59 46.71686 4.87713 36991 ft 457 kts 139°
2026-05-07 16:59 46.67219 4.94301 37002 ft 457 kts 139°
2026-05-07 17:00 46.62775 5.00839 37003 ft 458 kts 139°
2026-05-07 17:00 46.58293 5.07416 37004 ft 458 kts 139°
2026-05-07 17:01 46.53806 5.13985 37003 ft 458 kts 139°
2026-05-07 17:01 46.49305 5.20558 37003 ft 459 kts 139°
2026-05-07 17:02 46.44800 5.27119 36988 ft 459 kts 139°
2026-05-07 17:02 46.40293 5.33668 37000 ft 459 kts 139°
2026-05-07 17:03 46.35779 5.40211 37001 ft 459 kts 139°
2026-05-07 17:03 46.31260 5.46745 37001 ft 459 kts 139°
2026-05-07 17:04 46.26737 5.53268 36995 ft 459 kts 139°
2026-05-07 17:04 46.22213 5.59778 36978 ft 458 kts 139°
2026-05-07 17:05 46.17695 5.66261 36994 ft 458 kts 139°
2026-05-07 17:05 46.13180 5.72727 36998 ft 457 kts 139°
2026-05-07 17:06 46.08666 5.79172 36982 ft 456 kts 140°
2026-05-07 17:06 46.04161 5.85590 36980 ft 456 kts 140°
2026-05-07 17:07 45.99673 5.91968 36975 ft 456 kts 140°
2026-05-07 17:07 45.95131 5.98407 36955 ft 456 kts 140°
2026-05-07 17:08 45.90640 6.04760 36967 ft 456 kts 140°
2026-05-07 17:08 45.86114 6.11146 36969 ft 456 kts 140°
2026-05-07 17:09 45.81580 6.17528 36962 ft 457 kts 140°
2026-05-07 17:09 45.77048 6.23892 36961 ft 456 kts 140°
2026-05-07 17:10 45.72519 6.30237 36954 ft 455 kts 140°
2026-05-07 17:10 45.67996 6.36556 36961 ft 454 kts 140°
2026-05-07 17:11 45.63479 6.42855 36964 ft 454 kts 140°
2026-05-07 17:11 45.58955 6.49146 36967 ft 455 kts 140°
2026-05-07 17:12 45.54410 6.55451 36978 ft 456 kts 140°
2026-05-07 17:12 45.49856 6.61757 36989 ft 456 kts 141°
2026-05-07 17:13 45.45297 6.68053 36978 ft 457 kts 141°
2026-05-07 17:13 45.40724 6.74354 36982 ft 458 kts 141°
2026-05-07 17:14 45.36145 6.80648 36978 ft 458 kts 141°
2026-05-07 17:14 45.31567 6.86928 36997 ft 457 kts 141°
2026-05-07 17:15 45.26989 6.93193 36980 ft 457 kts 141°
2026-05-07 17:15 45.22577 6.99726 36986 ft 459 kts 137°
2026-05-07 17:16 45.18303 7.06448 37002 ft 459 kts 137°
2026-05-07 17:16 45.14024 7.13167 36993 ft 458 kts 137°
2026-05-07 17:17 45.09741 7.19822 36986 ft 457 kts 137°
2026-05-07 17:17 45.05452 7.26440 36990 ft 455 kts 138°
2026-05-07 17:18 45.01172 7.33020 37007 ft 455 kts 138°
2026-05-07 17:18 44.96886 7.39591 36973 ft 455 kts 138°
2026-05-07 17:19 44.92588 7.46170 36976 ft 456 kts 138°
2026-05-07 17:19 44.88278 7.52750 36975 ft 457 kts 138°
2026-05-07 17:20 44.83961 7.59327 36975 ft 458 kts 139°
2026-05-07 17:20 44.79630 7.65910 36961 ft 458 kts 139°
2026-05-07 17:21 44.75317 7.72449 36971 ft 459 kts 139°
2026-05-07 17:21 44.70935 7.79079 36954 ft 460 kts 139°
2026-05-07 17:22 44.66602 7.85618 36969 ft 460 kts 139°
2026-05-07 17:22 44.62229 7.92201 36974 ft 461 kts 139°
2026-05-07 17:23 44.57843 7.98789 36959 ft 462 kts 140°
2026-05-07 17:23 44.53449 8.05373 36981 ft 463 kts 140°
2026-05-07 17:24 44.49042 8.11962 36967 ft 463 kts 140°
2026-05-07 17:24 44.44634 8.18536 36979 ft 463 kts 140°
2026-05-07 17:25 44.40936 8.24039 36975 ft 463 kts 140°
2026-05-07 17:25 44.36558 8.30541 36980 ft 462 kts 140°
2026-05-07 17:26 44.32152 8.37069 36968 ft 461 kts 140°
2026-05-07 17:26 44.27761 8.43561 36990 ft 459 kts 140°
2026-05-07 17:27 44.23367 8.50039 36991 ft 459 kts 140°
2026-05-07 17:27 44.18974 8.56498 36990 ft 459 kts 140°
2026-05-07 17:28 44.14570 8.62961 36988 ft 460 kts 140°
2026-05-07 17:28 44.10161 8.69417 36987 ft 460 kts 140°
2026-05-07 17:29 44.05748 8.75864 36984 ft 460 kts 141°
2026-05-07 17:29 44.01323 8.82314 36985 ft 461 kts 141°
2026-05-07 17:30 43.96889 8.88761 36988 ft 462 kts 141°
2026-05-07 17:30 43.92441 8.95213 36990 ft 463 kts 141°
2026-05-07 17:31 43.87982 9.01667 36990 ft 464 kts 141°
2026-05-07 17:31 43.83517 9.08117 36983 ft 464 kts 141°
2026-05-07 17:32 43.79048 9.14556 36982 ft 464 kts 141°
2026-05-07 17:32 43.74572 9.20990 36985 ft 464 kts 141°
2026-05-07 17:33 43.70097 9.27408 36987 ft 464 kts 141°
2026-05-07 17:33 43.65614 9.33823 36986 ft 464 kts 141°
2026-05-07 17:34 43.61133 9.40220 36990 ft 463 kts 141°
2026-05-07 17:34 43.56651 9.46604 36959 ft 463 kts 141°
2026-05-07 17:35 43.52177 9.52963 36983 ft 462 kts 142°
2026-05-07 17:35 43.47698 9.59314 36987 ft 462 kts 142°
2026-05-07 17:36 43.43219 9.65649 36983 ft 461 kts 142°
2026-05-07 17:36 43.38748 9.71961 36979 ft 461 kts 142°
2026-05-07 17:37 43.34269 9.78268 36981 ft 460 kts 142°
2026-05-07 17:37 43.29812 9.84536 36951 ft 453 kts 142°
2026-05-07 17:38 43.27653 9.87578 36954 ft 438 kts 142°
2026-05-07 17:38 43.25565 9.90522 36959 ft 424 kts 143°
2026-05-07 17:38 43.21471 9.96245 36992 ft 422 kts 143°
2026-05-07 17:39 43.17322 10.02005 36979 ft 432 kts 143°
2026-05-07 17:39 43.13074 10.07911 36950 ft 437 kts 143°
2026-05-07 17:40 43.10939 10.10883 36482 ft 439 kts 143°
2026-05-07 17:40 43.08790 10.13871 35793 ft 442 kts 143°
2026-05-07 17:40 43.06617 10.16887 35165 ft 446 kts 143°
2026-05-07 17:40 43.04440 10.19908 34684 ft 445 kts 143°
2026-05-07 17:41 43.02276 10.22913 34311 ft 442 kts 143°
2026-05-07 17:41 43.00129 10.25892 33969 ft 438 kts 143°
2026-05-07 17:41 42.98001 10.28839 33541 ft 435 kts 143°
2026-05-07 17:41 42.95880 10.31769 33086 ft 433 kts 143°
2026-05-07 17:42 42.93767 10.34683 32695 ft 430 kts 143°
2026-05-07 17:42 42.91677 10.37564 32309 ft 427 kts 143°
2026-05-07 17:42 42.89590 10.40436 31888 ft 425 kts 143°
2026-05-07 17:42 42.87515 10.43287 31464 ft 423 kts 142°
2026-05-07 17:43 42.85443 10.46133 31049 ft 422 kts 142°
2026-05-07 17:43 42.83382 10.48962 30673 ft 420 kts 142°
2026-05-07 17:43 42.81330 10.51775 30292 ft 418 kts 142°
2026-05-07 17:43 42.79285 10.54577 29900 ft 416 kts 142°
2026-05-07 17:44 42.77250 10.57364 29465 ft 414 kts 142°
2026-05-07 17:44 42.75230 10.60126 29055 ft 410 kts 142°
2026-05-07 17:44 42.73220 10.62872 28623 ft 408 kts 142°
2026-05-07 17:44 42.71347 10.65698 28229 ft 411 kts 131°
2026-05-07 17:45 42.69776 10.68946 27878 ft 410 kts 127°
2026-05-07 17:45 42.68289 10.72303 27501 ft 408 kts 126°
2026-05-07 17:45 42.66866 10.75571 27121 ft 406 kts 125°
2026-05-07 17:45 42.65424 10.78848 26747 ft 403 kts 126°
2026-05-07 17:46 42.63954 10.82135 26382 ft 400 kts 126°
2026-05-07 17:46 42.62524 10.85291 26044 ft 397 kts 126°
2026-05-07 17:46 42.61071 10.88469 25701 ft 394 kts 126°
2026-05-07 17:46 42.59610 10.91650 25346 ft 392 kts 126°
2026-05-07 17:47 42.58186 10.94738 25010 ft 389 kts 126°
2026-05-07 17:47 42.56736 10.97880 24674 ft 387 kts 126°
2026-05-07 17:47 42.55330 11.00924 24353 ft 384 kts 126°
2026-05-07 17:47 42.53919 11.03977 24030 ft 382 kts 126°
2026-05-07 17:48 42.52513 11.07018 23711 ft 380 kts 125°
2026-05-07 17:48 42.51111 11.10045 23355 ft 377 kts 125°
2026-05-07 17:48 42.49723 11.13041 23001 ft 374 kts 125°
2026-05-07 17:48 42.48346 11.16013 22659 ft 371 kts 125°
2026-05-07 17:49 42.46976 11.18963 22311 ft 368 kts 125°
2026-05-07 17:49 42.45623 11.21874 22039 ft 363 kts 125°
2026-05-07 17:49 42.44329 11.24806 21671 ft 364 kts 117°
2026-05-07 17:49 42.43657 11.28107 21425 ft 365 kts 100°
2026-05-07 17:50 42.43299 11.31497 21162 ft 363 kts 99°
2026-05-07 17:50 42.42956 11.34875 20894 ft 362 kts 99°
2026-05-07 17:50 42.42607 11.38240 20645 ft 360 kts 99°
2026-05-07 17:50 42.42247 11.41579 20393 ft 358 kts 100°
2026-05-07 17:51 42.41879 11.44904 20130 ft 356 kts 100°
2026-05-07 17:51 42.41422 11.48178 19873 ft 353 kts 110°
2026-05-07 17:51 42.40405 11.51162 19634 ft 348 kts 126°
2026-05-07 17:51 42.39058 11.53879 19413 ft 347 kts 128°
2026-05-07 17:52 42.37692 11.56568 19175 ft 347 kts 128°
2026-05-07 17:52 42.36325 11.59254 18937 ft 346 kts 128°
2026-05-07 17:52 42.34966 11.61938 18700 ft 346 kts 128°
2026-05-07 17:52 42.33615 11.64624 18469 ft 345 kts 128°
2026-05-07 17:53 42.32275 11.67298 18232 ft 343 kts 128°
2026-05-07 17:53 42.30957 11.69936 17958 ft 342 kts 128°
2026-05-07 17:53 42.29631 11.72591 17693 ft 340 kts 128°
2026-05-07 17:53 42.28312 11.75233 17429 ft 338 kts 128°
2026-05-07 17:54 42.26982 11.77899 17162 ft 337 kts 127°
2026-05-07 17:54 42.25678 11.80509 16900 ft 334 kts 127°
2026-05-07 17:54 42.24405 11.83059 16641 ft 330 kts 127°
2026-05-07 17:54 42.23115 11.85639 16377 ft 326 kts 127°
2026-05-07 17:55 42.21871 11.88125 16120 ft 322 kts 127°
2026-05-07 17:55 42.20622 11.90618 15862 ft 319 kts 127°
2026-05-07 17:55 42.19386 11.93083 15618 ft 316 kts 127°
2026-05-07 17:55 42.18158 11.95529 15411 ft 313 kts 127°
2026-05-07 17:56 42.16940 11.97953 15175 ft 311 kts 127°
2026-05-07 17:56 42.15732 12.00357 14946 ft 309 kts 127°
2026-05-07 17:56 42.14525 12.02756 14720 ft 308 kts 127°
2026-05-07 17:56 42.13324 12.05141 14483 ft 307 kts 127°
2026-05-07 17:57 42.12125 12.07519 14258 ft 306 kts 127°
2026-05-07 17:57 42.11317 12.09123 14107 ft 306 kts 127°
2026-05-07 17:57 42.09734 12.12260 13802 ft 305 kts 127°
2026-05-07 17:57 42.08544 12.14618 13545 ft 305 kts 127°
2026-05-07 17:58 42.07354 12.16972 13289 ft 304 kts 127°
2026-05-07 17:58 42.06166 12.19322 12884 ft 303 kts 127°
2026-05-07 17:58 42.04979 12.21667 12634 ft 303 kts 127°
2026-05-07 17:58 42.03799 12.23999 12377 ft 301 kts 127°
2026-05-07 17:59 42.02629 12.26308 12161 ft 296 kts 127°
2026-05-07 17:59 42.01474 12.28587 11880 ft 294 kts 127°
2026-05-07 17:59 42.00339 12.30823 11772 ft 285 kts 127°
2026-05-07 17:59 41.99228 12.32988 11627 ft 278 kts 130°
2026-05-07 18:00 41.97788 12.34608 11418 ft 268 kts 157°
2026-05-07 18:00 41.96061 12.35464 11172 ft 264 kts 165°
2026-05-07 18:00 41.94306 12.36174 10901 ft 263 kts 165°
2026-05-07 18:00 41.92558 12.36871 10641 ft 262 kts 165°
2026-05-07 18:01 41.90815 12.37576 10379 ft 261 kts 165°
2026-05-07 18:01 41.89082 12.38288 10108 ft 260 kts 164°
2026-05-07 18:01 41.87365 12.38999 9958 ft 255 kts 164°
2026-05-07 18:01 41.85693 12.39694 9830 ft 248 kts 164°
2026-05-07 18:02 41.82441 12.41047 9289 ft 245 kts 164°
2026-05-07 18:02 41.80812 12.41726 8871 ft 246 kts 163°
2026-05-07 18:02 41.79181 12.42406 8509 ft 245 kts 163°
2026-05-07 18:03 41.77553 12.43084 8174 ft 244 kts 163°
2026-05-07 18:03 41.75937 12.43758 7832 ft 243 kts 163°
2026-05-07 18:03 41.74323 12.44430 7471 ft 242 kts 163°
2026-05-07 18:03 41.72721 12.45097 7193 ft 239 kts 163°
2026-05-07 18:04 41.71151 12.45750 6936 ft 234 kts 162°
2026-05-07 18:04 41.69606 12.46391 6680 ft 230 kts 162°
2026-05-07 18:04 41.68088 12.47019 6430 ft 226 kts 163°
2026-05-07 18:04 41.66513 12.47090 5877 ft 236 kts 198°
2026-05-07 18:05 41.65214 12.45763 5366 ft 242 kts 236°
2026-05-07 18:05 41.64478 12.43744 4963 ft 243 kts 249°
2026-05-07 18:05 41.63958 12.41679 4766 ft 235 kts 251°
2026-05-07 18:05 41.63445 12.39589 4434 ft 232 kts 251°
2026-05-07 18:06 41.63029 12.37574 4147 ft 224 kts 266°
2026-05-07 18:06 41.63397 12.35611 3819 ft 215 kts 308°
2026-05-07 18:06 41.64550 12.34503 3487 ft 207 kts 345°
2026-05-07 18:06 41.65919 12.33952 3183 ft 205 kts 346°
2026-05-07 18:07 41.67276 12.33405 2889 ft 201 kts 345°
2026-05-07 18:07 41.68599 12.32855 2621 ft 198 kts 344°
2026-05-07 18:07 41.69899 12.32309 2366 ft 194 kts 344°
2026-05-07 18:07 41.71182 12.31771 2082 ft 191 kts 343°
2026-05-07 18:08 41.72443 12.31243 1827 ft 188 kts 343°
2026-05-07 18:08 41.73676 12.30726 1584 ft 183 kts 343°
2026-05-07 18:08 41.74855 12.30232 1343 ft 171 kts 342°
2026-05-07 18:08 41.75953 12.29772 1129 ft 161 kts 342°
2026-05-07 18:09 41.76973 12.29345 913 ft 149 kts 342°
2026-05-07 18:09 41.77946 12.28938 733 ft 144 kts 341°
2026-05-07 18:09 41.78904 12.28536 560 ft 145 kts 340°
2026-05-07 18:09 41.79880 12.28127 368 ft 148 kts 340°
2026-05-07 18:10 41.80862 12.27710 165 ft 149 kts 341°
2026-05-07 18:10 41.81836 12.27307 14 ft 140 kts 340°
2026-05-07 18:10 41.82647 12.26967 12 ft 101 kts 343°
2026-05-07 18:10 41.83064 12.26741 10 ft 33 kts 323°
2026-05-07 18:11 41.83189 12.26582 9 ft 21 kts 312°
2026-05-07 18:11 41.83231 12.26521 10 ft 12 kts 310°
2026-05-07 18:11 41.83204 12.26415 11 ft 11 kts 188°
2026-05-07 18:11 41.83123 12.26445 11 ft 14 kts 162°
2026-05-07 18:12 41.83015 12.26490 10 ft 18 kts 163°
2026-05-07 18:12 41.82928 12.26525 10 ft 21 kts 163°
2026-05-07 18:12 41.82777 12.26588 12 ft 24 kts 161°
2026-05-07 18:12 41.82619 12.26655 10 ft 23 kts 162°
2026-05-07 18:13 41.82469 12.26718 12 ft 22 kts 162°
2026-05-07 18:13 41.82322 12.26779 10 ft 22 kts 162°
2026-05-07 18:13 41.82180 12.26839 11 ft 21 kts 163°
2026-05-07 18:13 41.82043 12.26897 10 ft 20 kts 162°
2026-05-07 18:14 41.81909 12.26953 10 ft 20 kts 163°
2026-05-07 18:14 41.81764 12.27013 11 ft 24 kts 162°
2026-05-07 18:14 41.81596 12.27083 11 ft 26 kts 162°
2026-05-07 18:14 41.81432 12.27152 11 ft 24 kts 162°
2026-05-07 18:15 41.81279 12.27217 11 ft 23 kts 163°
2026-05-07 18:15 41.81130 12.27277 11 ft 22 kts 163°
2026-05-07 18:15 41.80986 12.27339 13 ft 21 kts 165°
2026-05-07 18:15 41.80841 12.27334 11 ft 21 kts 191°
2026-05-07 18:16 41.80702 12.27296 13 ft 20 kts 206°
2026-05-07 18:16 41.80633 12.27141 12 ft 20 kts 250°
2026-05-07 18:16 41.80587 12.26973 13 ft 19 kts 250°
2026-05-07 18:16 41.80542 12.26810 14 ft 18 kts 250°
2026-05-07 18:17 41.80498 12.26653 16 ft 18 kts 249°
2026-05-07 18:17 41.80460 12.26515 14 ft 8 kts 250°
2026-05-07 18:17 41.80456 12.26498 14 ft 0 kts 251°
2026-05-07 18:18 41.80452 12.26483 14 ft 4 kts 251°
2026-05-07 18:18 41.80436 12.26425 14 ft 9 kts 248°
2026-05-07 18:18 41.80379 12.26364 14 ft 14 kts 186°
2026-05-07 18:19 41.80271 12.26406 13 ft 18 kts 163°
2026-05-07 18:19 41.80155 12.26370 13 ft 18 kts 205°
2026-05-07 18:19 41.80045 12.26301 14 ft 17 kts 205°
2026-05-07 18:19 41.79941 12.26239 14 ft 16 kts 203°
2026-05-07 18:20 41.79841 12.26175 13 ft 16 kts 205°
2026-05-07 18:20 41.79740 12.26140 13 ft 15 kts 164°
2026-05-07 18:20 41.79650 12.26122 13 ft 12 kts 206°
2026-05-07 18:20 41.79618 12.26110 15 ft 3 kts 156°
2026-05-07 18:21 41.79607 12.26134 13 ft 3 kts 118°
2026-05-07 18:21 41.79598 12.26159 13 ft 3 kts 116°
2026-05-07 18:21 41.79592 12.26175 14 ft 1 kts 116°
2026-05-07 18:21 41.79590 12.26180 14 ft 0 kts 116°